[[{"header":{"parameterUnit":"m.s-1","parameterCategory":1,"la1":30.2992,"la2":30.254,"lo1":-89.0895,"lo2":-89.0443,"dy":0.0025,"dx":0.0025,"nx":19,"ny":19,"refTime":"2026-05-21T09:00:00:Z","depth":0,"parameterNumber":2,"parameterNumberName":"U-component_of_WINDS"},"data":[0,0,0,2.298,2.2982,2.307,2.307,2.3181,2.3182,0,0,0,0,0,0,0,0,0,0,0,2.2954,2.2955,2.298,2.2982,2.307,2.307,2.3181,2.3182,0,0,0,0,0,0,0,0,0,0,0,2.2953,2.2954,2.2955,2.2982,2.3069,2.307,2.3181,2.3115,0,0,0,0,0,0,0,0,0,0,2.3029,2.3006,2.2954,2.2955,2.2983,2.3069,2.307,2.3112,2.3119,2.3141,0,2.3162,0,2.3174,2.319,2.319,0,0,0,2.2981,2.3,2.3023,2.2955,2.2983,2.3069,2.303,2.3116,2.3124,2.3151,2.3164,2.3168,2.3176,2.3191,2.3191,2.3322,2.3323,0,0,2.2977,2.297,2.3018,2.3029,2.3016,2.3027,2.3033,2.3121,2.3134,2.3164,2.317,2.3178,2.3191,2.3192,2.3322,2.3322,0,0,0,2.2963,2.2966,2.2988,2.3024,2.304,2.303,2.3036,2.313,2.3137,2.3171,2.3179,2.3192,2.3193,2.3321,2.3322,2.3346,0,0,0,2.296,2.2958,2.2986,2.2982,2.3039,2.3086,2.3043,2.3131,2.3141,2.3178,2.3192,2.3194,2.332,2.3321,2.3344,2.3358,0,0,0,2.2948,2.2957,2.297,2.2981,2.3019,2.3085,2.3098,2.3134,2.3146,2.319,2.3195,2.332,2.3321,2.3342,2.3355,2.339,0,0,0,2.2933,2.299,2.297,2.3036,2.3018,2.3099,2.3097,2.3158,2.3199,2.3192,2.332,2.3322,2.3341,2.3353,2.3388,2.3418,2.343,0,0,2.3,2.2997,2.3037,2.3022,2.3104,2.3086,2.3172,2.3216,2.3227,2.329,2.3293,2.3344,2.3355,2.3389,2.35,2.351,0,0,0,2.3056,2.3084,2.3107,2.3146,2.3181,2.3212,2.3244,2.326,2.3314,2.3258,2.3367,2.3373,2.3394,2.3409,2.3417,2.3434,2.3328,2.3328,2.3328,2.314,2.3151,2.3217,2.3238,2.3275,2.3307,2.3338,2.3365,2.3365,2.339,2.3409,2.3475,2.3492,2.3498,2.3517,2.3426,2.3426,2.3426,2.3426,2.324,2.3281,2.3279,2.3342,2.3352,2.3405,2.3438,2.3436,2.3486,2.3462,2.3481,2.3454,2.3508,2.3525,2.3428,2.3428,2.3428,2.3428,2.3427,2.3296,2.3317,2.3336,2.3393,2.3435,2.3455,2.3503,2.3511,2.3518,2.3537,2.3557,2.3557,2.3557,2.3546,2.3546,2.3547,2.3547,2.3547,2.3547,2.3346,2.3367,2.3407,2.3449,2.3475,2.3509,2.3541,2.3567,2.3596,2.3598,2.3598,2.3595,2.3512,2.349,2.3551,2.355,2.355,2.3549,2.3549,2.3442,2.3422,2.3483,2.3509,2.3559,2.36,2.3609,2.366,2.3682,2.3705,2.3698,2.3635,2.3632,2.3626,2.3608,2.3695,2.3695,2.3696,2.3696,2.3489,2.3489,2.3553,2.3594,2.3634,2.3649,2.3717,2.3743,2.3765,2.3779,2.3768,2.3745,2.3738,2.374,2.3731,2.3715,2.3827,2.3827,2.3827,2.3548,2.3552,2.3609,2.3632,2.3671,2.3704,2.3768,2.3814,2.3835,2.3833,2.379,2.3785,2.3748,2.3736,2.3732,2.3718,2.3688,0,0]},{"header":{"parameterUnit":"m.s-1","parameterCategory":1,"la1":30.2992,"la2":30.254,"lo1":-89.0895,"lo2":-89.0443,"dy":0.0025,"dx":0.0025,"nx":19,"ny":19,"refTime":"2026-05-21T09:00:00:Z","depth":0,"parameterNumber":3,"parameterNumberName":"V-component_of_WINDS"},"data":[0,0,0,3.74,3.7402,3.7497,3.7497,3.7608,3.7609,0,0,0,0,0,0,0,0,0,0,0,3.7365,3.7365,3.74,3.7402,3.7497,3.7497,3.7608,3.7609,0,0,0,0,0,0,0,0,0,0,0,3.7364,3.7365,3.7366,3.7402,3.7497,3.7497,3.7608,3.754,0,0,0,0,0,0,0,0,0,0,3.745,3.741,3.7365,3.7366,3.7403,3.7497,3.7497,3.7537,3.7544,3.756,0,3.7572,0,3.7592,3.7616,3.7616,0,0,0,3.7408,3.7403,3.7436,3.7366,3.7404,3.7497,3.7456,3.7541,3.7549,3.757,3.7574,3.7578,3.7594,3.7616,3.7617,3.769,3.769,0,0,3.7402,3.7378,3.743,3.7441,3.7424,3.7453,3.7459,3.7546,3.7549,3.7574,3.7581,3.7596,3.7617,3.7618,3.769,3.769,0,0,0,3.7384,3.7374,3.7404,3.7436,3.7454,3.7455,3.7462,3.7545,3.7557,3.7582,3.7597,3.7618,3.7619,3.769,3.769,3.7669,0,0,0,3.7381,3.7363,3.7402,3.7387,3.7452,3.75,3.7458,3.7551,3.7562,3.7597,3.7618,3.762,3.769,3.769,3.767,3.7663,0,0,0,3.7361,3.7361,3.7372,3.7386,3.7426,3.75,3.7517,3.7554,3.7571,3.7616,3.762,3.7689,3.769,3.767,3.7664,3.7675,0,0,0,3.7333,3.7352,3.7371,3.7399,3.7425,3.7486,3.7516,3.7563,3.76,3.7618,3.769,3.769,3.767,3.7664,3.7675,3.768,3.7679,0,0,3.7343,3.7352,3.7371,3.7391,3.7442,3.7474,3.7523,3.758,3.7607,3.7661,3.7663,3.7669,3.7664,3.7675,3.7687,3.7686,0,0,0,3.7366,3.7378,3.7398,3.7431,3.7475,3.7513,3.7566,3.7587,3.7634,3.7629,3.7678,3.7675,3.7683,3.7686,3.7686,3.7694,3.769,3.769,3.769,3.7344,3.7378,3.7411,3.7457,3.749,3.7545,3.7574,3.7613,3.7638,3.7649,3.7664,3.7667,3.767,3.767,3.7678,3.767,3.767,3.767,3.767,3.7362,3.7386,3.742,3.7463,3.75,3.7538,3.7592,3.7608,3.7649,3.7658,3.7666,3.7671,3.7668,3.7677,3.7669,3.7669,3.7669,3.7669,3.7669,3.7351,3.7369,3.7395,3.7448,3.7486,3.7533,3.7571,3.7603,3.7634,3.7642,3.7663,3.7663,3.7667,3.765,3.765,3.765,3.765,3.765,3.765,3.7329,3.736,3.7387,3.7437,3.7464,3.7503,3.756,3.7588,3.7626,3.7647,3.7647,3.7671,3.7662,3.7658,3.765,3.765,3.765,3.765,3.765,3.7333,3.7338,3.738,3.7407,3.7469,3.7505,3.7547,3.7601,3.7628,3.7646,3.767,3.7657,3.7669,3.7669,3.7666,3.7662,3.7662,3.7662,3.7662,3.7323,3.7333,3.7384,3.7425,3.7469,3.7512,3.756,3.7605,3.7653,3.7673,3.7679,3.7678,3.7677,3.769,3.769,3.7688,3.7688,3.7688,3.7688,3.7328,3.7344,3.7377,3.7424,3.7475,3.7519,3.7566,3.7613,3.7668,3.769,3.7689,3.7688,3.7688,3.7686,3.7705,3.7705,3.7702,0,0]}]]